Location: Go?cza
(50.3372°N, 19.9313°E)
Time: 23:16:27
(UTC+00:00)

CZ-2C R/B - Pass Details

Date: 05 August 2024
Orbit: 665 x 777 km, 98.4° (Epoch: 16 September)

Event Time Altitude Azimuth Distance (km) Brightness Sun altitude
Rises 01:16:48 0° 24° (NNE) 3,247 7.4 -15.1°
Reaches altitude 10° 01:19:36 10° 39° (NE) 2,326 6.4 -14.8°
Maximum altitude 01:23:38 23° 91° (E) 1,614 4.6 -14.4°
Drops below altitude 10° 01:27:40 10° 143° (SE) 2,327 4.9 -14.0°
Sets 01:30:27 0° 158° (SSE) 3,247 5.5 -13.7°
